Погода в Кардице

Греция     39°21′53″N   21°55′17″E
темп.,
°C
ветер,
м/с
пор.,
м/с
влажн.,
%
обл.,
%
осадки,
мм/ч
давл.,
гПа
погр.,
м
9 мая, вс
вс900:00+16ссз016330 0.0 101712
03:00+13сз117815 0.0 102011
06:00+14ссз118199 0.0 1021159
09:00+14вюв1286100 0.3 1023248
12:00+15з127098 0.2 1024493
15:00+18с125890 0.2 10241216
18:00+19в115785 0.0 10231167
21:00+15в236486 0.0 1024123
10 мая, пн
пн1000:00+12з11759 0.0 102513
03:00+10з11820 0.0 102410
06:00+9зюз11850 0.0 102410
09:00+13ссв21680 0.0 1024446
12:00+17св22540 0.0 10231071
15:00+21ссв224520 0.0 10211311
18:00+21всв22465 0.0 10191318
21:00+14юв12735 0.0 102028
11 мая, вт
вт1100:00+11зюз117995 0.0 102112
03:00+10з11840 0.0 102010
06:00+9зюз11860 0.0 101910
09:00+14ссв11680 0.0 1019348
12:00+19св21510 0.0 1018842
15:00+22св22420 0.0 10151054
18:00+23всв224114 0.0 10131016
21:00+15ююв11725 0.0 101320
12 мая, ср
ср1200:00+13юз01784 0.0 101313
03:00+11ююз01840 0.0 101211
06:00+11ююз0086100 0.0 101111
09:00+15всв117098 0.0 1010241
12:00+22ссв225078 0.0 1009699
15:00+27зюз692892 0.0 10072450
18:00+24зюз68350 0.0 10061516
21:00+17юз55505 0.0 100761
13 мая, чт
чт1300:00+14юз44750 0.0 100859
03:00+12юз33811 0.0 100838
06:00+11юз33841 0.0 100840
09:00+17зюз125679 0.0 1009451
12:00+23зюз25350 0.0 10081960
15:00+24зюз79334 0.0 10082468
18:00+23зюз57360 0.0 10081893
21:00+17юз584795 0.0 1010130